カタログに戻る

STARLINK-34736

運用中通信SSO
NORAD 64846·PAYLOAD·🇺🇸 United States

打ち上げ Jul 19, 2025 から Vandenberg Space Force Base

Loading…

次のパス (今後24時間)

TLE

最新Source: CelesTrak SupGP

元期: Sep 14, 2026, 20:42 UTC

1 64846C 25152E   26257.86298611 -.00003040  00000+0 -94371-4 0  2579
2 64846  97.2842 108.5154 0001643  91.6120 193.0542 15.33434592    13

AllMySatでSTARLINK-34736をリアルタイム追跡

Download on the App Store